Lexington, KY

3:33 PM EDT on October 18, 2017 (GMT -0400)
Blue Grass

Weather History for KLEX - November, 2011

Change the Weather History Date:

Sunday, November 20, 2011

  Actual Average Record
Temperature  
Mean Temperature 58 °F 44 °F  
Max Temperature 60 °F 53 °F 78 °F (1942)
Min Temperature 56 °F 36 °F 6 °F (1873)
Degree Days  
Heating Degree Days 7 20  
Month to date heating degree days 293 334  
Since 1 July heating degree days 694 660  
Cooling Degree Days 0 0  
Month to date cooling degree days 1 0  
Year to date cooling degree days 1306 1188  
Growing Degree Days 7 (Base 50)    
Moisture  
Dew Point 55 °F    
Average Humidity 82    
Maximum Humidity 100    
Minimum Humidity 64    
Precipitation  
Precipitation 0.73 in 0.12 in 1.49 in (1900)
Month to date precipitation 3.01 2.27  
Year to date precipitation 57.25 39.98  
Snow  
Snow 0.00 in 0.00 in 0.60 in (1937)
Month to date snowfall 0.0 0.1  
Since 1 July snowfall 0.0 0.1  
Since 1 September snowfall 0.0 0.1  
Snow Depth 0.00 in    
Sea Level Pressure  
Sea Level Pressure 30.17 in    
Wind  
Wind Speed 10 mph (SSW)    
Max Wind Speed 24 mph    
Max Gust Speed 32 mph    
Visibility 6 miles    
Events Rain    
T = Trace of Precipitation, MM = Missing Value Source: NWS Daily Summary

Daily Weather History Graph

Daily Weather History Graph

Search for Another Location

Airport or City:

Trip Planner

Search our weather history database for the weather conditions in past years. The results will help you decide how hot, cold, wet, or windy it might be!

Date:

Astronomy

Nov. 20, 2011 Rise Set
Actual Time 7:24 AM EST 5:23 PM EST
Civil Twilight 6:55 AM EST 5:51 PM EST
Nautical Twilight 6:23 AM EST 6:23 PM EST
Astronomical Twilight 5:52 AM EST 6:55 PM EST
Moon 1:56 AM EST (11/20) 2:08 PM EST (11/20)
Length of Visible Light 10h 55m
Length of Day
9h 59m
Waning Crescent, 27% of the Moon is Illuminated
Nov 20
Waning Crescent
Nov 25
New
Dec 2
First Quarter
Dec 10
Full
Dec 17
Last Quarter

Hourly Weather History & Observations

Time (EST) Temp. Dew Point Humidity Pressure Visibility Wind Dir Wind Speed Gust Speed Precip Events Conditions
12:54 AM 59.0 °F 48.2 °F 67% 30.13 in 10.0 mi SSW 17.3 mph 25.3 mph N/A   Overcast
1:54 AM 59.0 °F 48.9 °F 69% 30.12 in 10.0 mi SSW 16.1 mph - N/A   Overcast
2:54 AM 59.0 °F 50.0 °F 72% 30.12 in 10.0 mi SSW 16.1 mph 29.9 mph N/A   Partly Cloudy
3:54 AM 57.9 °F 50.0 °F 75% 30.12 in 10.0 mi SSW 11.5 mph - N/A   Mostly Cloudy
4:54 AM 59.0 °F 51.1 °F 75% 30.13 in 10.0 mi SSW 11.5 mph - N/A   Overcast
5:54 AM 55.9 °F 54.0 °F 93% 30.14 in 6.0 mi South 10.4 mph - 0.13 in Rain Light Rain
6:54 AM 57.2 °F 53.6 °F 88% 30.17 in 10.0 mi SSW 8.1 mph - N/A   Overcast
7:54 AM 57.0 °F 54.0 °F 89% 30.19 in 10.0 mi SSW 9.2 mph - N/A   Overcast
8:35 AM 57.2 °F 53.6 °F 88% 30.21 in 10.0 mi SSW 11.5 mph - 0.00 in Rain Light Rain
8:54 AM 57.2 °F 53.6 °F 88% 30.21 in 8.0 mi SSW 13.8 mph - N/A Rain Light Rain
9:17 AM 57.2 °F 55.4 °F 94% 30.22 in 6.0 mi SSW 12.7 mph - N/A Rain Light Rain
9:30 AM 57.2 °F 55.4 °F 94% 30.22 in 8.0 mi SSW 12.7 mph - 0.02 in Rain Light Rain
9:54 AM 57.0 °F 55.0 °F 93% 30.21 in 4.0 mi SSW 12.7 mph - 0.04 in Rain Light Rain
10:07 AM 57.2 °F 55.4 °F 94% 30.21 in 7.0 mi South 13.8 mph - 0.01 in Rain Light Rain
10:13 AM 57.2 °F 55.4 °F 94% 30.21 in 8.0 mi South 13.8 mph 21.9 mph 0.01 in Rain Light Rain
10:17 AM 57.2 °F 55.4 °F 94% 30.21 in 9.0 mi South 12.7 mph 21.9 mph 0.01 in Rain Light Rain
10:44 AM 57.2 °F 55.4 °F 94% 30.22 in 10.0 mi SSW 10.4 mph - 0.01 in Rain Light Rain
10:51 AM 57.2 °F 55.4 °F 94% 30.22 in 10.0 mi South 11.5 mph - 0.01 in Rain Light Rain
10:54 AM 57.9 °F 55.9 °F 93% 30.21 in 10.0 mi South 11.5 mph - 0.01 in   Overcast
11:03 AM 57.2 °F 55.4 °F 94% 30.21 in 10.0 mi South 11.5 mph - N/A   Overcast
11:34 AM 57.2 °F 55.4 °F 94% 30.20 in 8.0 mi South 9.2 mph - 0.00 in Rain Light Rain
11:54 AM 57.9 °F 55.9 °F 93% 30.19 in 10.0 mi South 10.4 mph - 0.00 in   Overcast
12:54 PM 57.9 °F 55.9 °F 93% 30.17 in 7.0 mi South 12.7 mph - 0.00 in Rain Light Rain
1:40 PM 57.2 °F 55.4 °F 94% 30.17 in 1.8 mi South 9.2 mph - 0.07 in Rain Heavy Rain
1:54 PM 57.0 °F 55.9 °F 96% 30.16 in 1.8 mi South 10.4 mph - 0.15 in Rain Heavy Rain
2:05 PM 57.2 °F 55.4 °F 94% 30.16 in 3.0 mi South 9.2 mph - N/A Rain Light Rain
2:24 PM 57.2 °F 55.4 °F 94% 30.16 in 1.8 mi South 8.1 mph - 0.06 in Rain Rain
2:34 PM 57.2 °F 55.4 °F 94% 30.16 in 2.0 mi SSW 9.2 mph - N/A Rain Rain
2:48 PM 57.2 °F 55.4 °F 94% 30.16 in 3.0 mi SSW 8.1 mph - 0.11 in Rain Rain
2:54 PM 57.9 °F 57.0 °F 97% 30.15 in 3.0 mi SSW 9.2 mph - 0.12 in Rain Light Rain
3:54 PM 57.9 °F 57.0 °F 97% 30.14 in 3.0 mi South 9.2 mph - 0.03 in Rain Light Rain
4:01 PM 57.2 °F 57.2 °F 100% 30.15 in 2.5 mi South 8.1 mph - 0.01 in Rain Light Rain
4:54 PM 57.9 °F 57.0 °F 97% 30.14 in 3.0 mi SSW 6.9 mph - 0.03 in Rain Light Rain
5:01 PM 57.2 °F 57.2 °F 100% 30.15 in 2.5 mi SSW 8.1 mph - 0.00 in   Overcast
5:32 PM 57.2 °F 57.2 °F 100% 30.16 in 2.5 mi SSW 6.9 mph - 0.03 in Rain Light Rain
5:54 PM 57.9 °F 57.0 °F 97% 30.16 in 2.5 mi SSW 6.9 mph - 0.11 in Rain Rain
6:01 PM 57.2 °F 57.2 °F 100% 30.16 in 4.0 mi SSW 6.9 mph - 0.01 in Rain Rain
6:19 PM 57.2 °F 57.2 °F 100% 30.17 in 5.0 mi SSW 5.8 mph - 0.03 in Rain Light Rain
6:54 PM 57.2 °F 57.2 °F 100% 30.17 in 5.0 mi SSW 5.8 mph - N/A Rain Light Rain
7:54 PM 57.9 °F 57.0 °F 97% 30.17 in 8.0 mi SW 4.6 mph - 0.01 in   Overcast
8:47 PM 57.2 °F 57.2 °F 100% 30.18 in 3.0 mi SW 4.6 mph - N/A Rain Light Rain
8:54 PM 57.9 °F 57.0 °F 97% 30.17 in 4.0 mi WSW 4.6 mph - 0.04 in Rain Light Rain
9:54 PM 57.9 °F 57.0 °F 97% 30.17 in 7.0 mi SW 4.6 mph - 0.02 in   Overcast
10:54 PM 57.9 °F 57.9 °F 100% 30.18 in 4.0 mi WSW 4.6 mph - N/A   Overcast
11:16 PM 57.2 °F 57.2 °F 100% 30.17 in 2.5 mi SSW 5.8 mph - N/A   Overcast
11:44 PM 57.2 °F 57.2 °F 100% 30.17 in 1.5 mi West 3.5 mph - N/A   Overcast
11:54 PM 57.9 °F 57.9 °F 100% 30.17 in 0.8 mi WSW 3.5 mph - N/A   Mist